| time (UTC) | temp F | wind direction | speed MPH | gust MPH | rain 1hr in | rain 24hr in | rain mn in | humidity % | barometer mb |
| 20260906224656 | 86 | 146 | 3.0 | 3.0 | 0.00 | 0.00 | 0.00 | 23 | 1021.5 |
| 20260906224153 | 87 | 155 | 1.0 | 2.0 | 0.00 | 0.00 | 0.00 | 23 | 1021.3 |
| 20260906223649 | 89 | 128 | 0.0 | 3.0 | 0.00 | 0.00 | 0.00 | 23 | 1021.3 |
| 20260906223148 | 87 | 126 | 1.0 | 2.0 | 0.00 | 0.00 | 0.00 | 22 | 1021.6 |
| 20260906222646 | 87 | 145 | 0.0 | 6.0 | 0.00 | 0.00 | 0.00 | 24 | 1021.5 |
| 20260906222145 | 86 | 113 | 0.0 | 2.0 | 0.00 | 0.00 | 0.00 | 24 | 1021.6 |
| 20260906221643 | 86 | 141 | 1.0 | 3.0 | 0.00 | 0.00 | 0.00 | 23 | 1021.6 |
| 20260906221138 | 88 | 119 | 1.0 | 2.0 | 0.00 | 0.00 | 0.00 | 21 | 1021.7 |
| 20260906220634 | 88 | 137 | 3.0 | 4.0 | 0.00 | 0.00 | 0.00 | 22 | 1021.8 |
| 20260906220129 | 87 | 169 | 3.0 | 7.0 | 0.00 | 0.00 | 0.00 | 23 | 1021.8 |
| 20260906215628 | 88 | 220 | 4.0 | 4.0 | 0.00 | 0.00 | 0.00 | 23 | 1021.8 |
| 20260906215126 | 88 | 172 | 4.0 | 6.0 | 0.00 | 0.00 | 0.00 | 21 | 1021.8 |
| 20260906214626 | 87 | 122 | 1.0 | 4.0 | 0.00 | 0.00 | 0.00 | 23 | 1021.8 |
| 20260906214120 | 89 | 162 | 2.0 | 6.0 | 0.00 | 0.00 | 0.00 | 22 | 1022.1 |
| 20260906213619 | 88 | 146 | 2.0 | 3.0 | 0.00 | 0.00 | 0.00 | 24 | 1022.0 |
| 20260906213114 | 88 | 124 | 1.0 | 2.0 | 0.00 | 0.00 | 0.00 | 21 | 1022.2 |
| 20260906212612 | 89 | 125 | 0.0 | 1.0 | 0.00 | 0.00 | 0.00 | 21 | 1022.2 |
| 20260906212108 | 87 | 149 | 3.0 | 4.0 | 0.00 | 0.00 | 0.00 | 23 | 1022.6 |
| 20260906211607 | 89 | 162 | 3.0 | 3.0 | 0.00 | 0.00 | 0.00 | 21 | 1022.6 |
| 20260906211102 | 89 | 128 | 1.0 | 2.0 | 0.00 | 0.00 | 0.00 | 22 | 1022.6 |
| 20260906210557 | 90 | 130 | 2.0 | 2.0 | 0.00 | 0.00 | 0.00 | 22 | 1022.6 |
| 20260906210052 | 88 | 88 | 2.0 | 3.0 | 0.00 | 0.00 | 0.00 | 21 | 1022.6 |
| 20260906205548 | 88 | 133 | 2.0 | 10.0 | 0.00 | 0.00 | 0.00 | 22 | 1022.5 |
| 20260906205044 | 88 | 240 | 5.0 | 8.0 | 0.00 | 0.00 | 0.00 | 21 | 1022.6 |
| 20260906204543 | 88 | 341 | 3.0 | 4.0 | 0.00 | 0.00 | 0.00 | 21 | 1022.9 |
| 20260906204038 | 90 | 113 | 0.0 | 4.0 | 0.00 | 0.00 | 0.00 | 20 | 1022.7 |
| 20260906203537 | 88 | 132 | 0.0 | 2.0 | 0.00 | 0.00 | 0.00 | 23 | 1022.8 |
| 20260906203033 | 89 | 113 | 2.0 | 4.0 | 0.00 | 0.00 | 0.00 | 22 | 1022.9 |
| 20260906202529 | 89 | 119 | 0.0 | 3.0 | 0.00 | 0.00 | 0.00 | 21 | 1022.9 |
| 20260906202024 | 88 | 104 | 0.0 | 6.0 | 0.00 | 0.00 | 0.00 | 22 | 1022.9 |
| 20260906201524 | 88 | 127 | 0.0 | 6.0 | 0.00 | 0.00 | 0.00 | 23 | 1023.2 |
| 20260906201024 | 87 | 154 | 2.0 | 3.0 | 0.00 | 0.00 | 0.00 | 23 | 1023.3 |
| 20260906200520 | 86 | 120 | 1.0 | 2.0 | 0.00 | 0.00 | 0.00 | 23 | 1022.9 |
| 20260906200015 | 87 | 316 | 1.0 | 3.0 | 0.00 | 0.00 | 0.00 | 23 | 1023.2 |
| 20260906195511 | 85 | 101 | 1.0 | 3.0 | 0.00 | 0.00 | 0.00 | 24 | 1023.6 |
| 20260906195007 | 85 | 62 | 3.0 | 6.0 | 0.00 | 0.00 | 0.00 | 23 | 1023.4 |
| 20260906194503 | 85 | 42 | 2.0 | 3.0 | 0.00 | 0.00 | 0.00 | 24 | 1023.4 |
| 20260906193958 | 85 | 54 | 3.0 | 6.0 | 0.00 | 0.00 | 0.00 | 23 | 1023.4 |
| 20260906193453 | 85 | 108 | 1.0 | 4.0 | 0.00 | 0.00 | 0.00 | 24 | 1023.6 |
| 20260906192948 | 86 | 138 | 1.0 | 4.0 | 0.00 | 0.00 | 0.00 | 23 | 1023.6 |
| 20260906192443 | 85 | 152 | 2.0 | 3.0 | 0.00 | 0.00 | 0.00 | 23 | 1023.6 |
| 20260906191942 | 85 | 87 | 3.0 | 6.0 | 0.00 | 0.00 | 0.00 | 23 | 1023.7 |
| 20260906191437 | 85 | 50 | 4.0 | 6.0 | 0.00 | 0.00 | 0.00 | 23 | 1023.9 |
| 20260906190936 | 86 | 42 | 1.0 | 7.0 | 0.00 | 0.00 | 0.00 | 23 | 1024.1 |
| 20260906190435 | 85 | 121 | 1.0 | 3.0 | 0.00 | 0.00 | 0.00 | 26 | 1023.8 |
| 20260906185930 | 85 | 151 | 1.0 | 4.0 | 0.00 | 0.00 | 0.00 | 22 | 1024.1 |
| 20260906185429 | 85 | 95 | 2.0 | 3.0 | 0.00 | 0.00 | 0.00 | 22 | 1024.2 |
| 20260906184929 | 83 | 128 | 1.0 | 6.0 | 0.00 | 0.00 | 0.00 | 24 | 1024.2 |
| 20260906184425 | 85 | 87 | 1.0 | 3.0 | 0.00 | 0.00 | 0.00 | 23 | 1024.2 |
| 20260906183924 | 85 | 47 | 6.0 | 7.0 | 0.00 | 0.00 | 0.00 | 23 | 1024.4 |
| 20260906183421 | 86 | 148 | 2.0 | 2.0 | 0.00 | 0.00 | 0.00 | 23 | 1024.4 |
| 20260906182916 | 84 | 114 | 1.0 | 3.0 | 0.00 | 0.00 | 0.00 | 24 | 1024.4 |
| 20260906182411 | 84 | 57 | 2.0 | 3.0 | 0.00 | 0.00 | 0.00 | 23 | 1024.5 |
| 20260906181907 | 84 | 28 | 2.0 | 4.0 | 0.00 | 0.00 | 0.00 | 24 | 1024.8 |
| 20260906181402 | 82 | 146 | 1.0 | 6.0 | 0.00 | 0.00 | 0.00 | 24 | 1024.8 |
| 20260906180858 | 82 | 61 | 4.0 | 6.0 | 0.00 | 0.00 | 0.00 | 24 | 1025.0 |
| 20260906180353 | 82 | 182 | 1.0 | 3.0 | 0.00 | 0.00 | 0.00 | 25 | 1025.2 |
| 20260906175850 | 82 | 64 | 3.0 | 6.0 | 0.00 | 0.00 | 0.00 | 25 | 1025.0 |
| 20260906175345 | 84 | 116 | 2.0 | 4.0 | 0.00 | 0.00 | 0.00 | 24 | 1025.3 |
| 20260906174844 | 82 | 103 | 1.0 | 6.0 | 0.00 | 0.00 | 0.00 | 25 | 1025.2 |
| 20260906174344 | 81 | 58 | 3.0 | 4.0 | 0.00 | 0.00 | 0.00 | 25 | 1025.4 |
| 20260906173839 | 81 | 95 | 3.0 | 8.0 | 0.00 | 0.00 | 0.00 | 25 | 1025.4 |
| 20260906173335 | 81 | 97 | 3.0 | 4.0 | 0.00 | 0.00 | 0.00 | 24 | 1025.4 |
| 20260906172834 | 82 | 97 | 1.0 | 6.0 | 0.00 | 0.00 | 0.00 | 24 | 1025.7 |
| 20260906172331 | 83 | 135 | 1.0 | 4.0 | 0.00 | 0.00 | 0.00 | 23 | 1025.7 |
| 20260906171826 | 81 | 138 | 2.0 | 8.0 | 0.00 | 0.00 | 0.00 | 23 | 1025.5 |
| 20260906171326 | 83 | 193 | 1.0 | 4.0 | 0.00 | 0.00 | 0.00 | 24 | 1025.8 |
| 20260906170821 | 82 | 86 | 1.0 | 2.0 | 0.00 | 0.00 | 0.00 | 24 | 1025.4 |
| 20260906170312 | 83 | 117 | 3.0 | 3.0 | 0.00 | 0.00 | 0.00 | 23 | 1025.4 |
| 20260906165808 | 84 | 109 | 0.0 | 2.0 | 0.00 | 0.00 | 0.00 | 24 | 1025.3 |
| 20260906165308 | 81 | 180 | 1.0 | 2.0 | 0.00 | 0.00 | 0.00 | 25 | 1025.5 |
| 20260906164802 | 82 | 54 | 2.0 | 6.0 | 0.00 | 0.00 | 0.00 | 24 | 1025.5 |
| 20260906164301 | 82 | 70 | 0.0 | 2.0 | 0.00 | 0.00 | 0.00 | 25 | 1025.5 |
| 20260906163758 | 81 | 107 | 2.0 | 6.0 | 0.00 | 0.00 | 0.00 | 25 | 1025.7 |
| 20260906163254 | 81 | 115 | 1.0 | 1.0 | 0.00 | 0.00 | 0.00 | 23 | 1025.4 |
| 20260906162751 | 83 | 62 | 1.0 | 4.0 | 0.00 | 0.00 | 0.00 | 24 | 1025.7 |
| 20260906162245 | 82 | 139 | 0.0 | 4.0 | 0.00 | 0.00 | 0.00 | 25 | 1025.5 |
| 20260906161740 | 82 | 60 | 2.0 | 9.0 | 0.00 | 0.00 | 0.00 | 24 | 1025.7 |
| 20260906161239 | 82 | 133 | 1.0 | 2.0 | 0.00 | 0.00 | 0.00 | 23 | 1025.5 |
| 20260906160737 | 81 | 86 | 2.0 | 7.0 | 0.00 | 0.00 | 0.00 | 25 | 1025.5 |
| 20260906160232 | 80 | 79 | 2.0 | 3.0 | 0.00 | 0.00 | 0.00 | 24 | 1025.7 |
| 20260906155729 | 78 | 68 | 2.0 | 7.0 | 0.00 | 0.00 | 0.00 | 25 | 1025.5 |
| 20260906155224 | 79 | 37 | 4.0 | 4.0 | 0.00 | 0.00 | 0.00 | 27 | 1025.7 |
| 20260906154720 | 80 | 91 | 2.0 | 6.0 | 0.00 | 0.00 | 0.00 | 26 | 1025.5 |
| 20260906154215 | 80 | 107 | 1.0 | 2.0 | 0.00 | 0.00 | 0.00 | 27 | 1025.5 |
| 20260906153713 | 79 | 86 | 1.0 | 3.0 | 0.00 | 0.00 | 0.00 | 29 | 1025.4 |
| 20260906153208 | 77 | 103 | 1.0 | 3.0 | 0.00 | 0.00 | 0.00 | 34 | 1025.7 |
| 20260906152703 | 76 | 127 | 1.0 | 2.0 | 0.00 | 0.00 | 0.00 | 36 | 1025.7 |
| 20260906152203 | 75 | 129 | 1.0 | 1.0 | 0.00 | 0.00 | 0.00 | 38 | 1025.7 |
| 20260906151657 | 74 | 119 | 1.0 | 1.0 | 0.00 | 0.00 | 0.00 | 39 | 1025.5 |
| 20260906151153 | 74 | 123 | 1.0 | 2.0 | 0.00 | 0.00 | 0.00 | 39 | 1025.7 |
| 20260906150648 | 71 | 111 | 0.0 | 1.0 | 0.00 | 0.00 | 0.00 | 40 | 1025.7 |
| 20260906150143 | 70 | 119 | 0.0 | 1.0 | 0.00 | 0.00 | 0.00 | 42 | 1025.9 |
| 20260906145642 | 69 | 96 | 1.0 | 2.0 | 0.00 | 0.00 | 0.00 | 43 | 1025.9 |
| 20260906145137 | 67 | 68 | 2.0 | 2.0 | 0.00 | 0.00 | 0.00 | 46 | 1025.8 |
| 20260906144631 | 66 | 69 | 2.0 | 2.0 | 0.00 | 0.00 | 0.00 | 47 | 1025.9 |
| 20260906144126 | 65 | 79 | 2.0 | 3.0 | 0.00 | 0.00 | 0.00 | 49 | 1025.8 |
| 20260906143626 | 64 | 60 | 2.0 | 3.0 | 0.00 | 0.00 | 0.00 | 49 | 1025.8 |
| 20260906143123 | 64 | 105 | 0.0 | 1.0 | 0.00 | 0.00 | 0.00 | 51 | 1025.9 |
| 20260906142622 | 63 | 104 | 1.0 | 2.0 | 0.00 | 0.00 | 0.00 | 51 | 1025.8 |
| 20260906142117 | 61 | 97 | 0.0 | 1.0 | 0.00 | 0.00 | 0.00 | 55 | 1025.7 |
| 20260906141616 | 60 | 111 | 1.0 | 2.0 | 0.00 | 0.00 | 0.00 | 56 | 1025.9 |
| 20260906141112 | 59 | 108 | 1.0 | 1.0 | 0.00 | 0.00 | 0.00 | 59 | 1025.9 |
| 20260906140611 | 58 | 70 | 2.0 | 2.0 | 0.00 | 0.00 | 0.00 | 57 | 1025.9 |
| 20260906140106 | 57 | 88 | 2.0 | 2.0 | 0.00 | 0.00 | 0.00 | 59 | 1025.8 |
| 20260906135603 | 55 | 57 | 2.0 | 3.0 | 0.00 | 0.00 | 0.00 | 61 | 1025.7 |
| 20260906135059 | 54 | 58 | 2.0 | 3.0 | 0.00 | 0.00 | 0.00 | 63 | 1025.7 |
| 20260906134554 | 54 | 96 | 1.0 | 2.0 | 0.00 | 0.00 | 0.00 | 67 | 1025.5 |
| 20260906134049 | 54 | 58 | 2.0 | 3.0 | 0.00 | 0.00 | 0.00 | 62 | 1025.8 |
| 20260906133550 | 52 | 100 | 0.0 | 1.0 | 0.00 | 0.00 | 0.00 | 70 | 1025.5 |
| 20260906133045 | 50 | 79 | 1.0 | 2.0 | 0.00 | 0.00 | 0.00 | 76 | 1025.7 |
| 20260906132540 | 49 | 76 | 2.0 | 2.0 | 0.00 | 0.00 | 0.00 | 76 | 1025.5 |
| 20260906132036 | 48 | 87 | 1.0 | 1.0 | 0.00 | 0.00 | 0.00 | 78 | 1025.5 |
| 20260906131531 | 47 | 75 | 1.0 | 2.0 | 0.00 | 0.00 | 0.00 | 80 | 1025.5 |
| 20260906131026 | 47 | 89 | 1.0 | 1.0 | 0.00 | 0.00 | 0.00 | 80 | 1025.3 |
| 20260906130525 | 47 | 104 | 0.0 | 1.0 | 0.00 | 0.00 | 0.00 | 81 | 1025.3 |
| 20260906130022 | 47 | 115 | 0.0 | 0.0 | 0.00 | 0.00 | 0.00 | 81 | 1025.3 |
| 20260906125519 | 47 | 108 | 0.0 | 0.0 | 0.00 | 0.00 | 0.00 | 81 | 1025.2 |
| 20260906125019 | 47 | 97 | 1.0 | 1.0 | 0.00 | 0.00 | 0.00 | 81 | 1025.2 |
| 20260906124514 | 48 | 88 | 1.0 | 1.0 | 0.00 | 0.00 | 0.00 | 78 | 1025.4 |
| 20260906124009 | 48 | 101 | 0.0 | 1.0 | 0.00 | 0.00 | 0.00 | 76 | 1024.9 |
| 20260906123508 | 47 | 101 | 0.0 | 1.0 | 0.00 | 0.00 | 0.00 | 82 | 1025.0 |
| 20260906123004 | 47 | 86 | 1.0 | 1.0 | 0.00 | 0.00 | 0.00 | 82 | 1025.2 |
| 20260906122503 | 47 | 54 | 2.0 | 2.0 | 0.00 | 0.00 | 0.00 | 81 | 1025.3 |
| 20260906121959 | 47 | 100 | 1.0 | 1.0 | 0.00 | 0.00 | 0.00 | 82 | 1024.9 |
| 20260906121455 | 47 | 104 | 0.0 | 1.0 | 0.00 | 0.00 | 0.00 | 82 | 1024.9 |
| 20260906120951 | 47 | 112 | 0.0 | 0.0 | 0.00 | 0.00 | 0.00 | 83 | 1025.0 |
| 20260906120447 | 47 | 112 | 0.0 | 0.0 | 0.00 | 0.00 | 0.00 | 82 | 1024.9 |
| 20260906115943 | 47 | 102 | 0.0 | 1.0 | 0.00 | 0.00 | 0.00 | 82 | 1024.8 |
| 20260906115438 | 47 | 100 | 0.0 | 1.0 | 0.00 | 0.00 | 0.00 | 81 | 1024.8 |
| 20260906114938 | 47 | 108 | 0.0 | 1.0 | 0.00 | 0.00 | 0.00 | 81 | 1024.9 |
| 20260906114432 | 48 | 113 | 0.0 | 0.0 | 0.00 | 0.00 | 0.00 | 80 | 1025.0 |
| 20260906113928 | 48 | 111 | 0.0 | 1.0 | 0.00 | 0.00 | 0.00 | 80 | 1024.9 |
| 20260906113426 | 48 | 99 | 0.0 | 1.0 | 0.00 | 0.00 | 0.00 | 79 | 1024.8 |
| 20260906112923 | 48 | 112 | 0.0 | 0.0 | 0.00 | 0.00 | 0.00 | 78 | 1024.8 |
| 20260906112418 | 48 | 97 | 0.0 | 1.0 | 0.00 | 0.00 | 0.00 | 78 | 1024.5 |
| 20260906111914 | 48 | 90 | 0.0 | 1.0 | 0.00 | 0.00 | 0.00 | 78 | 1024.7 |
| 20260906111413 | 49 | 99 | 0.0 | 1.0 | 0.00 | 0.00 | 0.00 | 75 | 1024.8 |
| 20260906110908 | 49 | 102 | 0.0 | 1.0 | 0.00 | 0.00 | 0.00 | 76 | 1024.9 |
| 20260906110403 | 49 | 88 | 1.0 | 1.0 | 0.00 | 0.00 | 0.00 | 76 | 1024.8 |
| 20260906105903 | 50 | 111 | 0.0 | 2.0 | 0.00 | 0.00 | 0.00 | 76 | 1024.9 |
| 20260906105358 | 49 | 287 | 2.0 | 3.0 | 0.00 | 0.00 | 0.00 | 73 | 1024.8 |
| 20260906104854 | 48 | 76 | 1.0 | 1.0 | 0.00 | 0.00 | 0.00 | 79 | 1024.8 |
| 20260906104352 | 48 | 92 | 1.0 | 1.0 | 0.00 | 0.00 | 0.00 | 80 | 1024.8 |
| 20260906103851 | 48 | 98 | 0.0 | 1.0 | 0.00 | 0.00 | 0.00 | 81 | 1024.8 |
| 20260906103349 | 48 | 97 | 0.0 | 1.0 | 0.00 | 0.00 | 0.00 | 80 | 1024.8 |
| 20260906102846 | 50 | 98 | 0.0 | 1.0 | 0.00 | 0.00 | 0.00 | 75 | 1024.7 |
| 20260906102344 | 50 | 98 | 0.0 | 1.0 | 0.00 | 0.00 | 0.00 | 74 | 1024.5 |
| 20260906101840 | 49 | 91 | 0.0 | 1.0 | 0.00 | 0.00 | 0.00 | 77 | 1024.5 |
| 20260906101335 | 49 | 96 | 1.0 | 1.0 | 0.00 | 0.00 | 0.00 | 79 | 1024.7 |
| 20260906100831 | 50 | 101 | 0.0 | 0.0 | 0.00 | 0.00 | 0.00 | 74 | 1024.7 |
| 20260906100329 | 49 | 84 | 1.0 | 1.0 | 0.00 | 0.00 | 0.00 | 76 | 1024.8 |
| 20260906095825 | 49 | 101 | 0.0 | 1.0 | 0.00 | 0.00 | 0.00 | 77 | 1024.8 |
| 20260906095320 | 49 | 97 | 0.0 | 1.0 | 0.00 | 0.00 | 0.00 | 76 | 1024.8 |
| 20260906094819 | 49 | 102 | 0.0 | 1.0 | 0.00 | 0.00 | 0.00 | 77 | 1025.2 |
| 20260906094315 | 50 | 99 | 0.0 | 0.0 | 0.00 | 0.00 | 0.00 | 74 | 1024.9 |
| 20260906093811 | 50 | 103 | 0.0 | 1.0 | 0.00 | 0.00 | 0.00 | 75 | 1024.8 |
| 20260906093307 | 50 | 100 | 0.0 | 1.0 | 0.00 | 0.00 | 0.00 | 75 | 1024.9 |
| 20260906092802 | 50 | 95 | 1.0 | 1.0 | 0.00 | 0.00 | 0.00 | 75 | 1025.0 |
| 20260906092301 | 50 | 106 | 0.0 | 1.0 | 0.00 | 0.00 | 0.00 | 75 | 1024.8 |
| 20260906091757 | 51 | 96 | 1.0 | 1.0 | 0.00 | 0.00 | 0.00 | 72 | 1025.0 |
| 20260906091253 | 51 | 100 | 0.0 | 1.0 | 0.00 | 0.00 | 0.00 | 70 | 1025.0 |
| 20260906090749 | 50 | 102 | 0.0 | 1.0 | 0.00 | 0.00 | 0.00 | 75 | 1024.8 |
| 20260906090248 | 51 | 90 | 1.0 | 1.0 | 0.00 | 0.00 | 0.00 | 72 | 1025.0 |
| 20260906085748 | 50 | 88 | 1.0 | 1.0 | 0.00 | 0.00 | 0.00 | 74 | 1024.7 |
| 20260906085247 | 50 | 107 | 0.0 | 0.0 | 0.00 | 0.00 | 0.00 | 76 | 1024.8 |
| 20260906084742 | 51 | 109 | 0.0 | 0.0 | 0.00 | 0.00 | 0.00 | 74 | 1024.9 |
| 20260906084242 | 51 | 100 | 0.0 | 1.0 | 0.00 | 0.00 | 0.00 | 74 | 1024.7 |
| 20260906083737 | 51 | 83 | 1.0 | 1.0 | 0.00 | 0.00 | 0.00 | 75 | 1025.0 |
| 20260906083232 | 51 | 97 | 1.0 | 1.0 | 0.00 | 0.00 | 0.00 | 76 | 1025.0 |
| 20260906082727 | 51 | 93 | 0.0 | 1.0 | 0.00 | 0.00 | 0.00 | 73 | 1025.0 |
| 20260906082222 | 51 | 104 | 0.0 | 1.0 | 0.00 | 0.00 | 0.00 | 72 | 1024.9 |
| 20260906081719 | 52 | 94 | 1.0 | 1.0 | 0.00 | 0.00 | 0.00 | 71 | 1025.0 |
| 20260906081213 | 51 | 99 | 0.0 | 1.0 | 0.00 | 0.00 | 0.00 | 73 | 1024.9 |
| 20260906080710 | 52 | 97 | 0.0 | 1.0 | 0.00 | 0.00 | 0.00 | 74 | 1025.0 |
| 20260906080206 | 52 | 110 | 0.0 | 0.0 | 0.00 | 0.00 | 0.00 | 69 | 1024.9 |
| 20260906075706 | 53 | 107 | 0.0 | 0.0 | 0.00 | 0.00 | 0.00 | 70 | 1025.0 |
| 20260906075200 | 54 | 95 | 0.0 | 1.0 | 0.00 | 0.00 | 0.00 | 65 | 1025.2 |
| 20260906074655 | 54 | 100 | 0.0 | 2.0 | 0.00 | 0.00 | 0.00 | 65 | 1025.2 |
| 20260906074154 | 53 | 83 | 0.0 | 1.0 | 0.00 | 0.00 | 0.00 | 67 | 1025.2 |
| 20260906073650 | 53 | 95 | 0.0 | 2.0 | 0.00 | 0.00 | 0.00 | 70 | 1025.2 |
| 20260906073145 | 53 | 86 | 1.0 | 2.0 | 0.00 | 0.00 | 0.00 | 72 | 1025.2 |
| 20260906072641 | 53 | 93 | 1.0 | 1.0 | 0.00 | 0.00 | 0.00 | 69 | 1025.2 |
| 20260906072136 | 53 | 94 | 1.0 | 1.0 | 0.00 | 0.00 | 0.00 | 72 | 1025.2 |
| 20260906071632 | 53 | 99 | 0.0 | 1.0 | 0.00 | 0.00 | 0.00 | 74 | 1025.3 |
| 20260906071132 | 53 | 107 | 0.0 | 0.0 | 0.00 | 0.00 | 0.00 | 73 | 1025.3 |
| 20260906070629 | 53 | 113 | 0.0 | 0.0 | 0.00 | 0.00 | 0.00 | 74 | 1025.3 |
| 20260906070124 | 53 | 106 | 0.0 | 1.0 | 0.00 | 0.00 | 0.00 | 74 | 1025.3 |
| 20260906065624 | 54 | 109 | 0.0 | 0.0 | 0.00 | 0.00 | 0.00 | 71 | 1025.2 |
| 20260906065119 | 54 | 109 | 0.0 | 0.0 | 0.00 | 0.00 | 0.00 | 70 | 1025.2 |
| 20260906064614 | 54 | 106 | 0.0 | 1.0 | 0.00 | 0.00 | 0.00 | 71 | 1025.3 |
| 20260906064109 | 54 | 106 | 0.0 | 1.0 | 0.00 | 0.00 | 0.00 | 71 | 1025.4 |
| 20260906063605 | 54 | 108 | 0.0 | 1.0 | 0.00 | 0.00 | 0.00 | 71 | 1025.3 |
| 20260906063101 | 54 | 110 | 0.0 | 0.0 | 0.00 | 0.00 | 0.00 | 73 | 1025.2 |
| 20260906062556 | 55 | 103 | 0.0 | 1.0 | 0.00 | 0.00 | 0.00 | 72 | 1025.2 |
| 20260906062055 | 54 | 106 | 0.0 | 0.0 | 0.00 | 0.00 | 0.00 | 71 | 1025.2 |
| 20260906061552 | 54 | 101 | 0.0 | 1.0 | 0.00 | 0.00 | 0.00 | 72 | 1025.4 |
| 20260906061050 | 55 | 112 | 0.0 | 0.0 | 0.00 | 0.00 | 0.00 | 73 | 1025.0 |
| 20260906060547 | 55 | 107 | 0.0 | 0.0 | 0.00 | 0.00 | 0.00 | 71 | 1025.2 |
| 20260906060044 | 55 | 102 | 0.0 | 1.0 | 0.00 | 0.00 | 0.00 | 73 | 1025.3 |
| 20260906055540 | 56 | 85 | 1.0 | 1.0 | 0.00 | 0.00 | 0.00 | 73 | 1025.3 |
| 20260906055035 | 56 | 115 | 0.0 | 1.0 | 0.00 | 0.00 | 0.00 | 68 | 1025.0 |
| 20260906054535 | 57 | 122 | 0.0 | 0.0 | 0.00 | 0.00 | 0.00 | 66 | 1025.2 |
| 20260906054030 | 56 | 109 | 0.0 | 0.0 | 0.00 | 0.00 | 0.00 | 69 | 1025.4 |
| 20260906053527 | 56 | 110 | 0.0 | 0.0 | 0.00 | 0.00 | 0.00 | 71 | 1025.3 |
| 20260906053022 | 56 | 112 | 0.0 | 0.0 | 0.00 | 0.00 | 0.00 | 72 | 1025.3 |
| 20260906052518 | 57 | 113 | 0.0 | 0.0 | 0.00 | 0.00 | 0.00 | 64 | 1025.2 |
| 20260906052015 | 56 | 117 | 0.0 | 0.0 | 0.00 | 0.00 | 0.00 | 70 | 1025.2 |
| 20260906051510 | 57 | 101 | 0.0 | 1.0 | 0.00 | 0.00 | 0.00 | 71 | 1025.2 |
| 20260906051005 | 57 | 103 | 0.0 | 1.0 | 0.00 | 0.00 | 0.00 | 70 | 1025.3 |
| 20260906050500 | 58 | 116 | 0.0 | 0.0 | 0.00 | 0.00 | 0.00 | 66 | 1025.4 |
| 20260906045959 | 58 | 117 | 0.0 | 0.0 | 0.00 | 0.00 | 0.00 | 64 | 1025.2 |
| 20260906045458 | 58 | 106 | 0.0 | 0.0 | 0.00 | 0.00 | 0.00 | 68 | 1025.2 |
| 20260906044954 | 58 | 115 | 0.0 | 0.0 | 0.00 | 0.00 | 0.00 | 70 | 1025.2 |
| 20260906044449 | 58 | 112 | 0.0 | 0.0 | 0.00 | 0.00 | 0.00 | 61 | 1025.2 |
| 20260906043945 | 59 | 119 | 0.0 | 0.0 | 0.00 | 0.00 | 0.00 | 64 | 1025.2 |
| 20260906043441 | 59 | 111 | 0.0 | 0.0 | 0.00 | 0.00 | 0.00 | 67 | 1024.9 |
| 20260906042936 | 59 | 111 | 0.0 | 0.0 | 0.00 | 0.00 | 0.00 | 66 | 1025.2 |
| 20260906042435 | 60 | 115 | 0.0 | 0.0 | 0.00 | 0.00 | 0.00 | 60 | 1025.0 |
| 20260906041930 | 60 | 124 | 0.0 | 0.0 | 0.00 | 0.00 | 0.00 | 64 | 1025.3 |
| 20260906041426 | 60 | 112 | 0.0 | 1.0 | 0.00 | 0.00 | 0.00 | 63 | 1025.0 |
| 20260906040921 | 60 | 109 | 0.0 | 0.0 | 0.00 | 0.00 | 0.00 | 63 | 1025.0 |
| 20260906040416 | 60 | 113 | 0.0 | 0.0 | 0.00 | 0.00 | 0.00 | 63 | 1025.0 |
| 20260906035911 | 61 | 117 | 0.0 | 0.0 | 0.00 | 0.00 | 0.00 | 64 | 1025.2 |
| 20260906035406 | 62 | 108 | 0.0 | 1.0 | 0.00 | 0.00 | 0.00 | 62 | 1025.3 |
| 20260906034901 | 62 | 113 | 0.0 | 0.0 | 0.00 | 0.00 | 0.00 | 63 | 1025.0 |
| 20260906034355 | 63 | 121 | 0.0 | 0.0 | 0.00 | 0.00 | 0.00 | 60 | 1024.9 |
| 20260906033852 | 63 | 98 | 0.0 | 0.0 | 0.00 | 0.00 | 0.00 | 56 | 1024.9 |
| 20260906033351 | 64 | 98 | 0.0 | 0.0 | 0.00 | 0.00 | 0.00 | 58 | 1025.2 |
| 20260906032847 | 65 | 116 | 0.0 | 0.0 | 0.00 | 0.00 | 0.00 | 55 | 1024.9 |
| 20260906032343 | 66 | 115 | 0.0 | 0.0 | 0.00 | 0.00 | 0.00 | 53 | 1025.0 |
| 20260906031838 | 66 | 111 | 0.0 | 0.0 | 0.00 | 0.00 | 0.00 | 52 | 1024.7 |
| 20260906031334 | 66 | 104 | 0.0 | 1.0 | 0.00 | 0.00 | 0.00 | 52 | 1024.7 |
| 20260906030833 | 66 | 100 | 1.0 | 1.0 | 0.00 | 0.00 | 0.00 | 53 | 1024.7 |
| 20260906030329 | 66 | 98 | 0.0 | 1.0 | 0.00 | 0.00 | 0.00 | 52 | 1024.8 |
| 20260906025828 | 66 | 82 | 0.0 | 0.0 | 0.00 | 0.00 | 0.00 | 52 | 1024.5 |
| 20260906025322 | 65 | 88 | 0.0 | 0.0 | 0.00 | 0.00 | 0.00 | 55 | 1024.5 |
| 20260906024821 | 66 | 86 | 0.0 | 0.0 | 0.00 | 0.00 | 0.00 | 54 | 1024.4 |
| 20260906024321 | 66 | 91 | 0.0 | 1.0 | 0.00 | 0.00 | 0.00 | 51 | 1024.3 |
| 20260906023817 | 66 | 91 | 1.0 | 2.0 | 0.00 | 0.00 | 0.00 | 51 | 1024.1 |
| 20260906023312 | 67 | 80 | 1.0 | 1.0 | 0.00 | 0.00 | 0.00 | 51 | 1024.1 |
| 20260906022808 | 68 | 98 | 0.0 | 1.0 | 0.00 | 0.00 | 0.00 | 47 | 1024.3 |
| 20260906022306 | 68 | 109 | 0.0 | 1.0 | 0.00 | 0.00 | 0.00 | 49 | 1023.9 |
| 20260906021758 | 69 | 91 | 1.0 | 1.0 | 0.00 | 0.00 | 0.00 | 46 | 1024.2 |
| 20260906021252 | 70 | 101 | 0.0 | 1.0 | 0.00 | 0.00 | 0.00 | 43 | 1023.9 |
| 20260906020746 | 70 | 95 | 1.0 | 2.0 | 0.00 | 0.00 | 0.00 | 43 | 1023.9 |
| 20260906020240 | 72 | 73 | 1.0 | 2.0 | 0.00 | 0.00 | 0.00 | 43 | 1023.9 |
| 20260906015735 | 72 | 90 | 1.0 | 1.0 | 0.00 | 0.00 | 0.00 | 39 | 1023.7 |
| 20260906015233 | 72 | 93 | 0.0 | 0.0 | 0.00 | 0.00 | 0.00 | 42 | 1023.8 |
| 20260906014728 | 72 | 117 | 0.0 | 1.0 | 0.00 | 0.00 | 0.00 | 40 | 1023.7 |
| 20260906014224 | 73 | 126 | 0.0 | 0.0 | 0.00 | 0.00 | 0.00 | 39 | 1023.7 |
| 20260906013720 | 73 | 116 | 0.0 | 0.0 | 0.00 | 0.00 | 0.00 | 39 | 1023.6 |
| 20260906013220 | 74 | 122 | 0.0 | 0.0 | 0.00 | 0.00 | 0.00 | 38 | 1023.8 |
| 20260906012716 | 74 | 125 | 0.0 | 0.0 | 0.00 | 0.00 | 0.00 | 38 | 1023.4 |
| 20260906012215 | 75 | 118 | 0.0 | 1.0 | 0.00 | 0.00 | 0.00 | 37 | 1023.7 |
| 20260906011711 | 75 | 122 | 0.0 | 0.0 | 0.00 | 0.00 | 0.00 | 36 | 1023.4 |
| 20260906011205 | 76 | 121 | 0.0 | 1.0 | 0.00 | 0.00 | 0.00 | 36 | 1023.7 |
| 20260906010701 | 76 | 122 | 0.0 | 2.0 | 0.00 | 0.00 | 0.00 | 36 | 1023.6 |
| 20260906010157 | 76 | 123 | 1.0 | 3.0 | 0.00 | 0.00 | 0.00 | 35 | 1023.6 |
| 20260906005656 | 76 | 126 | 1.0 | 2.0 | 0.00 | 0.00 | 0.00 | 35 | 1023.7 |
| 20260906005151 | 77 | 119 | 0.0 | 2.0 | 0.00 | 0.00 | 0.00 | 36 | 1023.4 |
| 20260906004649 | 77 | 99 | 0.0 | 0.0 | 0.00 | 0.00 | 0.00 | 34 | 1023.6 |
| 20260906004144 | 77 | 125 | 0.0 | 3.0 | 0.00 | 0.00 | 0.00 | 34 | 1023.4 |
| 20260906003634 | 78 | 185 | 1.0 | 2.0 | 0.00 | 0.00 | 0.00 | 33 | 1023.6 |
| 20260906003129 | 78 | 113 | 0.0 | 2.0 | 0.00 | 0.00 | 0.00 | 33 | 1023.7 |
| 20260906002625 | 79 | 124 | 2.0 | 2.0 | 0.00 | 0.00 | 0.00 | 32 | 1023.3 |
| 20260906002119 | 80 | 139 | 1.0 | 4.0 | 0.00 | 0.00 | 0.00 | 31 | 1023.1 |
| 20260906001615 | 81 | 127 | 0.0 | 4.0 | 0.00 | 0.00 | 0.00 | 30 | 1023.3 |
| 20260906001114 | 81 | 149 | 2.0 | 3.0 | 0.00 | 0.00 | 0.00 | 30 | 1023.2 |
| 20260906000610 | 81 | 128 | 0.0 | 1.0 | 0.00 | 0.00 | 0.00 | 31 | 1023.3 |
| 20260906000106 | 82 | 126 | 1.0 | 2.0 | 0.00 | 0.00 | 0.00 | 31 | 1023.2 |
| 20260905235604 | 81 | 184 | 2.0 | 2.0 | 0.00 | 0.00 | 0.00 | 30 | 1023.2 |
| 20260905235059 | 81 | 126 | 0.0 | 1.0 | 0.00 | 0.00 | 0.00 | 30 | 1023.4 |
| 20260905234555 | 80 | 69 | 1.0 | 2.0 | 0.00 | 0.00 | 0.00 | 29 | 1023.2 |
| 20260905234050 | 82 | 134 | 1.0 | 4.0 | 0.00 | 0.00 | 0.00 | 29 | 1023.3 |
| 20260905233545 | 82 | 153 | 3.0 | 4.0 | 0.00 | 0.00 | 0.00 | 29 | 1023.3 |
| 20260905233045 | 82 | 147 | 4.0 | 6.0 | 0.00 | 0.00 | 0.00 | 29 | 1023.2 |
| 20260905232540 | 82 | 110 | 1.0 | 2.0 | 0.00 | 0.00 | 0.00 | 29 | 1023.2 |
| 20260905232036 | 82 | 333 | 2.0 | 2.0 | 0.00 | 0.00 | 0.00 | 29 | 1023.2 |
| 20260905231531 | 82 | 151 | 2.0 | 4.0 | 0.00 | 0.00 | 0.00 | 28 | 1023.2 |
| 20260905231027 | 84 | 126 | 2.0 | 3.0 | 0.00 | 0.00 | 0.00 | 29 | 1023.2 |
| 20260905230526 | 84 | 221 | 3.0 | 6.0 | 0.00 | 0.00 | 0.00 | 28 | 1023.3 |
| 20260905230025 | 84 | 114 | 3.0 | 6.0 | 0.00 | 0.00 | 0.00 | 28 | 1023.2 |
| 20260905225520 | 84 | 181 | 3.0 | 6.0 | 0.00 | 0.00 | 0.00 | 29 | 1023.3 |